Location: Castle
(40.7167°S, 175.9500°E)
Time: 04:08:25
(UTC+00:00)

ATLAS 5 CENTAUR R/B - Pass Details

Date: 04 August 2024
Orbit: 412 x 1157 km, 63.3° (Epoch: 07 September)

Event Time Altitude Azimuth Distance (km) Brightness Sun altitude
Exits shadow 17:14:46 19° 208° (SSW) 2,357 4.2 -23.6°
Drops below altitude 10° 17:19:14 10° 168° (SSE) 2,855 5.0 -22.8°
Sets 17:22:37 0° 150° (SSE) 3,684 5.9 -22.1°
